[[[{"header":{"parameterUnit":"kt","parameterCategory":2,"dx":1,"dy":1,"la1":30.253999710083008,"la2":30.299108505249023,"lo1":-89.0895004272461,"lo2":-89.04439544677734,"nx":28,"ny":28,"refTime":"2022-10-24T21:00:00:Z","depth":0,"parameterNumber":1,"parameterNumberName":"U-component_of_WINDS"},"data":[3.1205,3.1231,3.1234,3.1266,3.1273,3.1295,3.1304,3.1316,3.1326,3.1354,3.137,3.1375,3.1387,3.1407,3.1426,3.1428,3.1436,3.1445,3.1446,3.1403,3.1397,3.1391,3.1385,3.1447,3.1447,3.1491,3.1491,3.1491,3.1178,3.1186,3.1202,3.122,3.1235,3.1228,3.1242,3.1255,3.1275,3.1287,3.1302,3.1327,3.1347,3.1354,3.1374,3.1388,3.1385,3.1393,3.1392,3.1394,3.1348,3.1341,3.1395,3.1395,3.1395,3.1395,3.1395,3.1395,3.113,3.1145,3.1156,3.1174,3.1183,3.1195,3.1211,3.1215,3.1232,3.1251,3.1249,3.1272,3.1285,3.1308,3.1316,3.1334,3.1326,3.1335,3.1337,3.1339,3.1342,3.1282,3.1337,3.1337,3.1337,3.1337,3.1337,0,3.1095,3.1096,3.111,3.1127,3.114,3.1152,3.1164,3.1173,3.1173,3.1187,3.1206,3.1218,3.1242,3.1261,3.1278,3.1284,3.1278,3.1277,3.1283,3.1285,3.1285,3.1287,3.1212,3.1275,3.1274,3.1274,3.1274,3.1273,3.1047,3.1064,3.1075,3.1086,3.1092,3.1108,3.1119,3.1117,3.1128,3.1142,3.1156,3.1175,3.1189,3.1221,3.1226,3.1243,3.124,3.1264,3.1242,3.1244,3.1242,3.1241,3.1243,3.1268,3.1269,3.1269,3.127,0,3.1021,3.1022,3.1047,3.1056,3.1059,3.1077,3.1084,3.1099,3.1101,3.1122,3.1127,3.113,3.1149,3.1149,3.1171,3.117,3.1203,3.1199,3.12,3.12,3.1222,3.122,3.1292,3.1302,3.1237,3.1238,3.1238,0,3.0981,3.1002,3.1002,3.1017,3.1041,3.1038,3.1062,3.1066,3.1074,3.109,3.1082,3.1098,3.1095,3.1111,3.1111,3.1137,3.1141,3.1142,3.1142,3.1143,3.1143,3.1149,3.1146,3.1138,3.1138,3.1138,3.1137,0,3.0939,3.0963,3.0987,3.0992,3.1002,3.1013,3.1018,3.1026,3.1036,3.1048,3.1055,3.1069,3.1078,3.109,3.1089,3.1074,3.112,3.11,3.1122,3.1122,3.1131,3.1131,3.1195,3.1137,3.1137,3.1137,3.1136,0,3.0906,3.0917,3.0951,3.0959,3.0966,3.0981,3.0995,3.1007,3.1017,3.1017,3.1026,3.102,3.1041,3.1022,3.1052,3.1033,3.1043,3.1046,3.1047,3.1049,3.1026,3.1063,3.1124,3.1131,3.1052,3.1051,3.105,0,3.086,3.0893,3.0889,3.092,3.0935,3.0924,3.0942,3.0949,3.095,3.0964,3.0965,3.098,3.0965,3.097,3.0985,3.0987,3.1011,3.0983,3.1005,3.1006,3.1004,3.1059,3.1068,3.1111,3.1041,3.1042,3.1043,0,3.0823,3.0832,3.0838,3.0844,3.0852,3.0863,3.0883,3.0896,3.0905,3.0913,3.093,3.095,3.094,3.0947,3.0942,3.0958,3.0994,3.0945,3.0945,3.0955,3.1036,3.1045,3.1052,3.0988,3.0989,3.099,3.1036,0,3.0776,3.0791,3.0805,3.0816,3.0825,3.0843,3.084,3.085,3.0845,3.0844,3.0868,3.0872,3.0885,3.0891,3.0885,3.092,3.0914,3.0903,3.0883,3.0919,3.0934,3.094,3.0861,3.086,3.086,3.0859,0,0,3.0732,3.0752,3.0745,3.0762,3.0769,3.0755,3.0776,3.078,3.079,3.0795,3.0784,3.0813,3.0815,3.0844,3.0855,3.086,3.0866,3.0852,3.0901,3.0906,3.091,3.0926,3.0932,3.0858,3.0858,3.0858,3.0858,0,3.0714,3.0716,3.0734,3.0739,3.0745,3.0743,3.0748,3.0751,3.0752,3.0773,3.0761,3.0775,3.0795,3.0801,3.0807,3.0849,3.0839,3.0853,3.0878,3.0896,3.0901,3.0906,3.0923,3.0929,3.0857,3.0857,3.0857,0,3.0678,3.068,3.0688,3.07,3.0703,3.0718,3.0697,3.0711,3.0722,3.0705,3.0726,3.0727,3.0733,3.076,3.0771,3.0761,3.0816,3.0797,3.08,3.0801,3.0818,3.0824,3.083,3.0755,3.0754,3.0754,0,0,3.0662,3.0674,3.0674,3.0695,3.0699,3.0695,3.0701,3.0696,3.0701,3.0703,3.0703,3.0709,3.0722,3.073,3.0741,3.077,3.0771,3.0784,3.0789,3.0793,3.0796,3.0814,3.0821,3.0753,3.0753,3.0753,0,0,3.0654,3.0655,3.0648,3.0671,3.0677,3.0678,3.0691,3.0683,3.0691,3.0689,3.068,3.0681,3.0705,3.0706,3.0689,3.0734,3.0714,3.0718,3.0732,3.0738,3.0742,3.0742,3.0667,0,0,0,0,0,3.0633,3.0655,3.0649,3.0652,3.0666,3.0682,3.0683,3.0676,3.0663,3.0674,3.0674,3.0662,3.0696,3.0681,3.0685,3.0703,3.0736,3.0739,3.0742,3.0767,3.0773,3.0779,0,0,0,0,0,0,3.0634,3.0638,3.0648,3.065,3.0653,3.0681,3.0657,3.0656,3.0662,3.0659,3.0662,3.0662,3.0656,3.0679,3.0682,3.0699,3.0666,3.0737,3.074,3.0742,3.0769,3.0774,3.0779,0,0,0,0,0,3.0635,3.0638,3.0662,3.0649,3.0652,3.0648,3.0656,3.0655,3.0659,3.0657,3.0656,3.0653,3.0656,3.0659,3.0681,3.0698,3.0664,3.0665,3.0739,3.0741,3.0743,3.0772,0,0,0,0,0,0,3.0635,3.0637,3.0662,3.0663,3.064,3.0646,3.0647,3.0654,3.0657,3.0656,3.0648,3.0646,3.0657,3.0659,3.0661,3.0698,3.0662,3.0663,3.0664,3.0741,3.0742,3.0743,0,0,0,0,0,0,3.0635,3.0638,3.0662,3.065,3.065,3.0645,3.0646,3.0662,3.0657,3.0647,3.0645,3.0647,3.0654,3.0659,3.066,3.0687,3.066,3.0661,3.0662,3.0663,3.0742,3.0743,0,0,0,0,0,0,3.0636,3.0638,3.065,3.065,3.0649,3.0655,3.066,3.0674,3.0647,3.0647,3.0644,3.0643,3.0655,3.0656,3.066,3.0686,3.0687,3.066,3.0661,3.0662,3.0662,0,0,0,0,0,0,0,3.0637,3.0625,3.0659,3.0649,3.0648,3.0668,3.0668,3.0668,3.0646,3.0645,3.0644,3.0643,3.0653,3.0655,3.0656,3.0686,0,0,3.066,3.0661,0,0,0,0,0,0,0,0,3.0624,3.0625,3.0659,3.0659,3.0659,3.0668,3.0668,3.0668,3.0646,3.0645,3.0644,3.0644,3.0654,3.0655,3.0656,0,0,0,0,0,0,0,0,0,0,0,0,0,0,0,3.0659,3.0659,0,3.0668,3.0668,3.0668,3.0646,3.0645,3.0645,3.0644,3.0654,3.0655,3.0656,0,0,0,0,0,0,0,0,0,0,0,0,0,0,0,0,0,0,0,0,0,0,0,0,0,0,0,0,0,0,0,0,0,0,0,0,0,0,0,0,0,0,0,0,0,0,0,0,0,0,0,0,0,0,0,0,0,0,0,0,0,0,0,0,0,0,0,0,0]}],[{"header":{"parameterUnit":"kt","parameterCategory":2,"dx":1,"dy":1,"la1":30.253999710083008,"la2":30.299108505249023,"lo1":-89.0895004272461,"lo2":-89.04439544677734,"nx":28,"ny":28,"refTime":"2022-10-24T21:00:00:Z","depth":0,"parameterNumber":2,"parameterNumberName":"V-component_of_WINDS"},"data":[-7.0968,-7.1073,-7.1114,-7.1252,-7.1311,-7.1412,-7.1461,-7.1528,-7.159,-7.1714,-7.1792,-7.184,-7.1917,-7.2017,-7.2102,-7.2121,-7.2155,-7.2165,-7.2187,-7.2107,-7.2099,-7.2091,-7.2071,-7.2172,-7.2172,-7.2265,-7.2265,-7.2266,-7.0914,-7.0975,-7.1058,-7.1167,-7.124,-7.1256,-7.1342,-7.1401,-7.149,-7.1566,-7.1644,-7.1754,-7.1845,-7.1918,-7.2012,-7.2061,-7.2073,-7.2084,-7.2082,-7.2094,-7.201,-7.1988,-7.2073,-7.2073,-7.2073,-7.2073,-7.2073,-7.2073,-7.0827,-7.0887,-7.0977,-7.1068,-7.1132,-7.1204,-7.1268,-7.1327,-7.1407,-7.1511,-7.1539,-7.1639,-7.1721,-7.185,-7.1901,-7.198,-7.1974,-7.1997,-7.2003,-7.2009,-7.2013,-7.1881,-7.1996,-7.1996,-7.1996,-7.1996,-7.1996,0,-7.0776,-7.0807,-7.0888,-7.0983,-7.105,-7.1126,-7.1202,-7.1242,-7.1313,-7.1376,-7.147,-7.153,-7.1648,-7.174,-7.1833,-7.1882,-7.1902,-7.1906,-7.1923,-7.1914,-7.1895,-7.1911,-7.1776,-7.1903,-7.1902,-7.1901,-7.1901,-7.1901,-7.0695,-7.0758,-7.0868,-7.092,-7.0971,-7.1053,-7.1109,-7.1168,-7.1225,-7.1324,-7.1373,-7.1465,-7.1542,-7.1682,-7.1746,-7.1832,-7.1843,-7.1888,-7.1856,-7.1845,-7.1848,-7.1846,-7.1854,-7.1894,-7.1895,-7.1895,-7.1896,0,-7.0646,-7.0709,-7.0819,-7.092,-7.0948,-7.101,-7.1096,-7.1156,-7.1205,-7.1294,-7.1318,-7.1394,-7.1483,-7.1539,-7.165,-7.1677,-7.1783,-7.1789,-7.1758,-7.1763,-7.1812,-7.1808,-7.1954,-7.1978,-7.187,-7.1871,-7.1872,0,-7.0602,-7.0681,-7.0771,-7.0831,-7.0922,-7.0978,-7.1066,-7.1116,-7.1187,-7.1258,-7.129,-7.1355,-7.1416,-7.1489,-7.1528,-7.1624,-7.1643,-7.1671,-7.1681,-7.167,-7.1667,-7.1701,-7.1697,-7.1695,-7.1694,-7.1693,-7.1693,0,-7.0521,-7.0659,-7.0757,-7.0799,-7.0912,-7.0956,-7.1005,-7.1083,-7.1136,-7.1213,-7.1249,-7.1333,-7.138,-7.1445,-7.1495,-7.1471,-7.1611,-7.1589,-7.164,-7.1639,-7.1668,-7.1666,-7.1781,-7.1692,-7.1692,-7.1691,-7.1691,0,-7.0495,-7.0575,-7.0705,-7.0801,-7.0835,-7.0897,-7.0987,-7.1053,-7.1132,-7.1162,-7.1222,-7.125,-7.1335,-7.131,-7.1429,-7.1385,-7.1429,-7.1462,-7.1466,-7.1479,-7.145,-7.1511,-7.1611,-7.1626,-7.149,-7.1488,-7.1487,0,-7.0388,-7.0535,-7.0584,-7.0705,-7.0781,-7.0815,-7.0884,-7.0953,-7.0998,-7.1068,-7.1117,-7.1194,-7.1187,-7.1219,-7.127,-7.1323,-7.138,-7.1316,-7.1417,-7.142,-7.14,-7.1493,-7.1495,-7.1583,-7.1466,-7.1468,-7.1469,0,-7.0312,-7.0449,-7.0466,-7.0517,-7.0617,-7.0678,-7.0757,-7.0847,-7.0892,-7.0963,-7.1032,-7.1139,-7.114,-7.119,-7.122,-7.127,-7.1343,-7.1263,-7.1265,-7.1278,-7.1458,-7.1461,-7.1476,-7.1351,-7.1354,-7.1356,-7.1453,0,-7.0267,-7.0346,-7.0395,-7.0501,-7.0557,-7.0633,-7.0694,-7.0745,-7.077,-7.0815,-7.0914,-7.0981,-7.1069,-7.1097,-7.1119,-7.1216,-7.1208,-7.1206,-7.1186,-7.1245,-7.1278,-7.1292,-7.1132,-7.1132,-7.1132,-7.1131,0,0,-7.015,-7.0264,-7.0313,-7.0392,-7.0443,-7.0475,-7.0552,-7.0603,-7.0706,-7.0741,-7.073,-7.0891,-7.0944,-7.1058,-7.108,-7.1114,-7.1137,-7.1113,-7.1215,-7.1225,-7.1233,-7.1268,-7.1281,-7.1131,-7.1131,-7.1131,-7.1131,0,-7.0146,-7.0203,-7.0278,-7.0335,-7.0421,-7.0465,-7.0483,-7.0572,-7.0604,-7.07,-7.0723,-7.0788,-7.0911,-7.0967,-7.1012,-7.1101,-7.1114,-7.1122,-7.1153,-7.1211,-7.122,-7.1229,-7.1265,-7.1277,-7.113,-7.113,-7.113,0,-7.0085,-7.0152,-7.0194,-7.0309,-7.0364,-7.0438,-7.0434,-7.051,-7.0566,-7.0592,-7.0686,-7.073,-7.0807,-7.0904,-7.0949,-7.0941,-7.109,-7.105,-7.1053,-7.1059,-7.1118,-7.1129,-7.1139,-7.1008,-7.1007,-7.1007,0,0,-7.0073,-7.0146,-7.0234,-7.0312,-7.0346,-7.0411,-7.0455,-7.0484,-7.0554,-7.0581,-7.0638,-7.0704,-7.0777,-7.0823,-7.0894,-7.0992,-7.1013,-7.1033,-7.1038,-7.1043,-7.1052,-7.1112,-7.1123,-7.1005,-7.1004,-7.1004,0,0,-7.0067,-7.0173,-7.0186,-7.0285,-7.0352,-7.0442,-7.0487,-7.0504,-7.0574,-7.0571,-7.062,-7.064,-7.0731,-7.0772,-7.0734,-7.0888,-7.0867,-7.0877,-7.0858,-7.0867,-7.0872,-7.0861,-7.0736,0,0,0,0,0,-7.0094,-7.0161,-7.0171,-7.0197,-7.0338,-7.0436,-7.0454,-7.0498,-7.0485,-7.052,-7.057,-7.058,-7.0763,-7.073,-7.0753,-7.0795,-7.0973,-7.0979,-7.0984,-7.0983,-7.0991,-7.0997,0,0,0,0,0,0,-7.0104,-7.0135,-7.017,-7.0261,-7.0294,-7.0434,-7.0421,-7.0434,-7.0482,-7.0483,-7.057,-7.0582,-7.062,-7.0721,-7.0741,-7.078,-7.0729,-7.0976,-7.098,-7.0984,-7.0986,-7.0992,-7.0998,0,0,0,0,0,-7.0113,-7.0138,-7.0354,-7.0261,-7.0289,-7.0364,-7.0418,-7.043,-7.0467,-7.0544,-7.0557,-7.0496,-7.062,-7.064,-7.0733,-7.077,-7.0715,-7.0723,-7.0979,-7.0982,-7.0986,-7.0989,0,0,0,0,0,0,-7.0119,-7.0148,-7.0361,-7.0371,-7.0239,-7.0356,-7.0377,-7.0426,-7.0526,-7.0539,-7.0472,-7.0471,-7.062,-7.0636,-7.0651,-7.0765,-7.0704,-7.0712,-7.0716,-7.0981,-7.0984,-7.0987,0,0,0,0,0,0,-7.0135,-7.0157,-7.0366,-7.0335,-7.0343,-7.035,-7.0368,-7.0451,-7.0526,-7.0448,-7.0451,-7.047,-7.0596,-7.0633,-7.0645,-7.0774,-7.0695,-7.0703,-7.0708,-7.0711,-7.0984,-7.0986,0,0,0,0,0,0,-7.0145,-7.0164,-7.0333,-7.0338,-7.0345,-7.0462,-7.0424,-7.0566,-7.0503,-7.0443,-7.0498,-7.0496,-7.0594,-7.0607,-7.0641,-7.0765,-7.0772,-7.0696,-7.0701,-7.0704,-7.0706,0,0,0,0,0,0,0,-7.0153,-7.0019,-7.0301,-7.0341,-7.0346,-7.0465,-7.0467,-7.047,-7.0503,-7.0501,-7.0499,-7.0497,-7.0654,-7.0662,-7.067,-7.0757,0,0,-7.0695,-7.0698,0,0,0,0,0,0,0,0,-7.0012,-7.0018,-7.0301,-7.0303,-7.0305,-7.0465,-7.0467,-7.0469,-7.0502,-7.0501,-7.0499,-7.0498,-7.0656,-7.0663,-7.0669,0,0,0,0,0,0,0,0,0,0,0,0,0,0,0,-7.0301,-7.0303,0,-7.0465,-7.0467,-7.0469,-7.0502,-7.0501,-7.05,-7.0498,-7.0658,-7.0663,-7.0669,0,0,0,0,0,0,0,0,0,0,0,0,0,0,0,0,0,0,0,0,0,0,0,0,0,0,0,0,0,0,0,0,0,0,0,0,0,0,0,0,0,0,0,0,0,0,0,0,0,0,0,0,0,0,0,0,0,0,0,0,0,0,0,0,0,0,0,0,0]}]]]